This demonstration page uses our WeatherBlox Daily Observations layout. Learn more.

Left ArrowRight Arrow

39.51506, -84.39828

Hourly Observations for August 9, 2016

Temp ( °F °C ) Dew Point ( °F °C ) Humidity (%) Winds ( mph kmh ) Pressure ( in mb ) Visibility ( mi km ) Precip ( " mm )
12:15 am 00:15 Clear 72 22.3 61 16 68 68 N N/A 30.00 1016 10 16 N/A
12:35 am 00:35 Clear 72 22.4 62 16.9 71 71 NNW 3 6 30.00 1016 10 16 N/A
12:55 am 00:55 Clear 71 21.7 61 16.3 72 72 N N/A 30.00 1016 10 16 N/A
1:15 am 01:15 Clear 70 21.2 61 16.1 73 73 N 3 6 30.00 1016 10 16 N/A
1:35 am 01:35 Clear 69 20.8 60 15.7 73 73 N 5 7 30.00 1016 10 16 N/A
1:55 am 01:55 Clear 69 20.8 61 16 74 74 NNE 5 7 29.97 1015 10 16 N/A
2:15 am 02:15 Clear 69 20.8 61 16 74 74 N 3 6 29.97 1015 10 16 N/A
2:35 am 02:35 Clear 69 20.8 61 16.1 75 75 N 3 6 29.97 1015 10 16 N/A
2:55 am 02:55 Clear 69 20.8 62 16.4 76 76 N N/A 29.97 1015 10 16 N/A
3:15 am 03:15 Clear 69 20.8 63 17 79 79 N N/A 29.97 1015 10 16 N/A
3:35 am 03:35 Clear 69 20.8 63 17 79 79 N N/A 29.97 1015 10 16 N/A
3:55 am 03:55 Clear 69 20.8 63 17 79 79 N N/A 29.97 1015 10 16 N/A
4:15 am 04:15 Clear 69 20.8 63 17 79 79 N N/A 29.97 1015 10 16 N/A
4:35 am 04:35 Clear 69 20.8 63 17.1 79 79 N N/A 29.97 1015 10 16 N/A
4:55 am 04:55 Clear 68 20 62 16.4 80 80 NNW 3 6 29.97 1015 10 16 N/A
5:15 am 05:15 Clear 69 20.8 63 17.3 80 80 N N/A 29.97 1015 10 16 N/A
5:35 am 05:35 Clear 69 20.8 63 17.3 80 80 N N/A 29.97 1015 10 16 N/A
5:55 am 05:55 Clear 69 20.8 64 17.5 82 82 NNW 3 6 29.97 1015 10 16 N/A
6:15 am 06:15 Clear 69 20.8 64 17.5 82 82 N N/A 30.00 1016 10 16 N/A
6:35 am 06:35 Clear 69 20.8 64 17.5 82 82 N N/A 30.00 1016 10 16 N/A
6:55 am 06:55 Sunny 69 20.8 64 17.5 82 82 N N/A 30.00 1016 10 16 N/A
7:15 am 07:15 Sunny 69 20.8 64 17.5 82 82 N N/A 30.00 1016 10 16 N/A
7:35 am 07:35 Sunny 69 20.8 64 17.5 82 82 N N/A 30.00 1016 10 16 N/A
7:55 am 07:55 Partly Cloudy 72 22 65 18.2 79 79 N N/A 30.00 1016 10 16 N/A
8:15 am 08:15 Mostly Cloudy 74 23.6 67 19.3 77 77 N N/A 30.00 1016 10 16 N/A
8:35 am 08:35 Mostly Cloudy 74 23.6 66 19 75 75 N N/A 30.00 1016 10 16 N/A
8:55 am 08:55 Mostly Cloudy 75 23.7 65 18.4 72 72 NE 3 6 30.00 1016 10 16 N/A
9:15 am 09:15 Partly Cloudy 77 25.1 67 19.3 70 70 E 5 7 30.00 1016 10 16 N/A
9:35 am 09:35 Partly Cloudy 78 25.5 67 19.3 69 69 SSE 3 6 30.03 1017 10 16 N/A
9:55 am 09:55 Partly Cloudy 80 26.5 67 19.7 66 66 E 3 6 30.00 1016 10 16 N/A
10:15 am 10:15 Mostly Cloudy 80 26.5 67 19.6 66 66 N N/A 30.03 1017 10 16 N/A
10:35 am 10:35 Mostly Cloudy 81 27.2 67 19.7 64 64 N N/A 30.03 1017 10 16 N/A
10:55 am 10:55 Partly Cloudy 82 27.8 67 19.6 61 61 N N/A 30.00 1016 10 16 N/A
11:15 am 11:15 Partly Cloudy 82 28 67 19.5 60 60 N N/A 30.00 1016 10 16 N/A
11:35 am 11:35 Mostly Cloudy 83 28.3 67 19.6 59 59 N N/A 29.97 1015 10 16 N/A
11:55 am 11:55 Mostly Cloudy 83 28.4 67 19.7 59 59 W 3 6 29.97 1015 10 16 N/A
12:15 pm 12:15 Mostly Cloudy 86 30.2 69 20.3 55 55 N N/A 29.97 1015 10 16 N/A
12:35 pm 12:35 Mostly Cloudy 90 32 70 21.3 53 53 N N/A 29.97 1015 10 16 N/A
12:55 pm 12:55 Mostly Cloudy 90 32.1 69 20.7 51 51 WSW 5 7 29.97 1015 10 16 N/A
1:15 pm 13:15 Mostly Cloudy 90 32.1 70 20.9 52 52 N N/A 29.97 1015 10 16 N/A
1:35 pm 13:35 Mostly Cloudy 90 32.1 69 20.5 50 50 N N/A 29.97 1015 10 16 N/A
1:55 pm 13:55 Mostly Cloudy 90 32.1 69 20.6 51 51 N N/A 29.97 1015 10 16 N/A
2:15 pm 14:15 Mostly Cloudy 90 32.1 69 20.5 50 50 N N/A 29.94 1014 10 16 N/A
2:35 pm 14:35 Partly Cloudy 90 32.1 68 19.9 48 48 N 5 7 29.94 1014 10 16 N/A
2:55 pm 14:55 Mostly Cloudy 90 32.1 67 19.3 47 47 N N/A 29.94 1014 10 16 N/A
3:15 pm 15:15 Partly Cloudy 91 32.5 66 19 45 45 N N/A 29.94 1014 10 16 N/A
3:35 pm 15:35 Partly Cloudy 90 32.1 66 18.9 46 46 N N/A 29.94 1014 10 16 N/A
3:55 pm 15:55 Mostly Cloudy 90 32.2 65 18.4 44 44 N N/A 29.94 1014 10 16 N/A
4:15 pm 16:15 Mostly Cloudy 94 34.6 66 19.1 40 40 WSW 5 7 29.94 1014 10 16 N/A
4:35 pm 16:35 Cloudy with Rain 84 28.9 68 20 59 59 SSE 10 17 29.94 1014 10 16 N/A
4:55 pm 16:55 Cloudy with Heavy Rain 80 26.5 73 22.6 79 79 NNW 5 7 29.97 1015 2 2 N/A
5:15 pm 17:15 Mostly Cloudy 81 27.2 73 22.8 77 77 ENE 7 11 29.97 1015 10 16 N/A
5:35 pm 17:35 Partly Cloudy 82 27.7 73 23 76 76 E 3 6 29.97 1015 10 16 N/A
5:55 pm 17:55 Sunny 82 28 73 22.6 73 73 ESE 5 7 29.94 1014 10 16 N/A
6:15 pm 18:15 Sunny 84 28.7 72 22.2 68 68 N N/A 29.94 1014 10 16 N/A
6:35 pm 18:35 Sunny 87 30.3 73 22.6 63 63 N N/A 29.94 1014 10 16 N/A
6:55 pm 18:55 Sunny 90 32.1 74 23.6 61 61 SE 7 11 29.94 1014 10 16 N/A
7:15 pm 19:15 Sunny 87 30.7 72 22.4 61 61 SSE 6 9 29.94 1014 10 16 N/A
7:35 pm 19:35 Partly Cloudy 87 30.7 73 22.6 62 62 SSE 5 7 29.94 1014 10 16 N/A
7:55 pm 19:55 Partly Cloudy 87 30.7 72 22.2 61 61 S 7 11 29.94 1014 10 16 N/A
8:15 pm 20:15 Partly Cloudy 85 29.5 71 21.7 63 63 S 5 7 29.97 1015 10 16 N/A
8:35 pm 20:35 Mostly Cloudy 84 29 69 20.8 61 61 SSE 8 13 29.97 1015 10 16 N/A
8:55 pm 20:55 Partly Cloudy 83 28.2 67 19.7 60 60 SSE 8 13 29.97 1015 10 16 N/A
9:15 pm 21:15 Partly Cloudy 82 27.9 68 20.1 63 63 SSE 7 11 30.00 1016 10 16 N/A
9:35 pm 21:35 Cloudy 81 27.2 68 20 65 65 SSE 8 13 30.00 1016 10 16 N/A
9:55 pm 21:55 Mostly Cloudy with Light Rain 80 26.5 69 20.6 70 70 S 5 7 30.00 1016 10 16 N/A
10:15 pm 22:15 Partly Cloudy 80 26.5 71 21.7 75 75 N N/A 30.00 1016 10 16 N/A
10:35 pm 22:35 Clear 80 26.5 72 22 76 76 N N/A 30.00 1016 10 16 N/A
10:55 pm 22:55 Clear 77 25.1 70 21.3 80 80 NW 3 6 30.03 1017 10 16 N/A
11:15 pm 23:15 Partly Cloudy 77 25.1 71 21.5 81 81 N N/A 30.03 1017 10 16 N/A
11:35 pm 23:35 Partly Cloudy 77 25.1 70 21.3 80 80 N N/A 30.03 1017 10 16 N/A
11:55 pm 23:55 Clear 77 25.1 71 21.6 81 81 N N/A 30.03 1017 10 16 N/A

Powered by AerisWeather